Palm Springs, CA

11:59 AM PDT on September 26, 2016 (GMT -0700)
Palm Springs International

Weather History for KPSP - March, 2014

Change the Weather History Date:

Saturday, March 22, 2014

  Actual Average Record
Temperature  
Mean Temperature 68 °F 67 °F  
Max Temperature 81 °F 80 °F 96 °F (1931)
Min Temperature 55 °F 54 °F 34 °F (1924)
Degree Days  
Heating Degree Days 0 2  
Month to date heating degree days 12 60  
Since 1 July heating degree days 423 838  
Cooling Degree Days 3 3  
Month to date cooling degree days 119 55  
Year to date cooling degree days 227 82  
Growing Degree Days 18 (Base 50)    
Moisture  
Dew Point 44 °F    
Average Humidity 49    
Maximum Humidity 72    
Minimum Humidity 26    
Precipitation  
Precipitation 0.00 in 0.01 in 1.70 in (1954)
Month to date precipitation 0.28 0.56  
Year to date precipitation 0.70 2.59  
Since 1 July precipitation 1.96  
Snow  
Snow 0.00 in - - ()
Month to date snowfall 0.0  
Year to date snowfall 0.0  
Snow Depth 0.00 in    
Sea Level Pressure  
Sea Level Pressure 29.91 in    
Wind  
Wind Speed 7 mph (WNW)    
Max Wind Speed 20 mph    
Max Gust Speed 25 mph    
Visibility 10 miles    
Events      
T = Trace of Precipitation, MM = Missing Value Source: NWS Daily Summary

Daily Weather History Graph

Daily Weather History Graph

Search for Another Location

Airport or City:

Trip Planner

Search our weather history database for the weather conditions in past years. The results will help you decide how hot, cold, wet, or windy it might be!

Date:

Astronomy

Mar. 22, 2014 Rise Set
Actual Time 6:46 AM PDT 6:59 PM PDT
Civil Twilight 6:21 AM PDT 7:24 PM PDT
Nautical Twilight 5:52 AM PDT 7:53 PM PDT
Astronomical Twilight 5:23 AM PDT 8:22 PM PDT
Moon 12:09 AM PDT (3/22) 10:47 AM PDT (3/22)
Length of Visible Light 13h 02m
Length of Day
12h 12m
Waning Gibbous, 64% of the Moon is Illuminated
Mar 22
Waning Gibbous
Mar 23
Last Quarter
Mar 30
New
Apr 7
First Quarter
Apr 15
Full

Hourly Weather History & Observations

Time (PDT) Temp. Dew Point Humidity Pressure Visibility Wind Dir Wind Speed Gust Speed Precip Events Conditions
12:53 AM 63.0 °F 45.0 °F 52% 29.86 in 10.0 mi Calm Calm - N/A   Clear
1:53 AM 61.0 °F 44.1 °F 54% 29.86 in 10.0 mi SW 4.6 mph - N/A   Clear
2:53 AM 60.1 °F 46.0 °F 60% 29.85 in 9.0 mi SE 4.6 mph - N/A   Clear
3:53 AM 57.9 °F 46.0 °F 65% 29.85 in 9.0 mi South 4.6 mph - N/A   Clear
4:53 AM 57.9 °F 46.0 °F 65% 29.86 in 9.0 mi SE 4.6 mph - N/A   Clear
5:53 AM 57.0 °F 46.0 °F 67% 29.87 in 9.0 mi SSE 5.8 mph - N/A   Clear
6:53 AM 55.9 °F 46.0 °F 69% 29.90 in 8.0 mi Calm Calm - N/A   Clear
7:53 AM 59.0 °F 46.9 °F 64% 29.92 in 9.0 mi Calm Calm - N/A   Clear
8:53 AM 64.0 °F 45.0 °F 50% 29.93 in 10.0 mi SE 3.5 mph - N/A   Scattered Clouds
9:53 AM 69.1 °F 44.1 °F 40% 29.95 in 10.0 mi SW 4.6 mph - N/A   Clear
10:53 AM 73.0 °F 42.1 °F 33% 29.96 in 10.0 mi NNW 11.5 mph - N/A   Partly Cloudy
11:53 AM 75.0 °F 41.0 °F 29% 29.97 in 10.0 mi NW 11.5 mph - N/A   Clear
12:53 PM 75.9 °F 42.1 °F 30% 29.96 in 10.0 mi NNW 15.0 mph 23.0 mph N/A   Clear
1:53 PM 77.0 °F 42.1 °F 29% 29.94 in 10.0 mi NW 9.2 mph - N/A   Clear
2:53 PM 80.1 °F 42.1 °F 26% 29.91 in 10.0 mi North 10.4 mph - N/A   Scattered Clouds
3:53 PM 81.0 °F 42.1 °F 25% 29.89 in 10.0 mi NW 10.4 mph - N/A   Scattered Clouds
4:53 PM 80.1 °F 43.0 °F 27% 29.89 in 10.0 mi NW 16.1 mph 25.3 mph N/A   Scattered Clouds
5:53 PM 78.1 °F 43.0 °F 29% 29.90 in 10.0 mi NW 13.8 mph 23.0 mph N/A   Scattered Clouds
6:53 PM 75.0 °F 44.1 °F 33% 29.91 in 10.0 mi NW 17.3 mph - N/A   Clear
7:53 PM 73.0 °F 44.1 °F 35% 29.92 in 10.0 mi NW 13.8 mph - N/A   Clear
8:53 PM 72.0 °F 44.1 °F 37% 29.94 in 10.0 mi NW 11.5 mph - N/A   Clear
9:53 PM 70.0 °F 45.0 °F 41% 29.96 in 10.0 mi NW 11.5 mph - N/A   Clear
10:53 PM 68.0 °F 45.0 °F 43% 29.97 in 10.0 mi Variable 3.5 mph - N/A   Clear
11:53 PM 66.9 °F 45.0 °F 45% 29.98 in 10.0 mi WNW 6.9 mph - N/A   Clear